EW8157 Weather Reports


time (UTC)temp
C
wind
direction
speed
KPH
gust
KPH
rain 1hr
cm
rain 24hr
cm
rain mn
cm
humidity
%
barometer
mb
20260504050018 8 0.0 0.0 0.00 0.00 0.00 56 1011.0
20260504043017 8 0.0 0.0 0.00 0.00 0.00 54 1010.9
20260504040016 8 0.0 0.0 0.00 0.00 0.00 54 1010.7
20260504033018 9 0.0 0.0 0.00 0.00 0.00 52 1010.4
20260504030017 10 0.0 0.0 0.00 0.00 0.00 50 1010.2
20260504023017 10 0.0 1.6 0.00 0.00 0.00 48 1010.3
20260504020017 10 0.0 0.0 0.00 0.00 0.00 46 1010.4
20260504013017 11 0.0 0.0 0.00 0.00 0.00 44 1010.3
20260504010018 11 0.0 0.0 0.00 0.00 0.00 44 1010.0
20260504003017 12 0.0 1.6 0.00 0.00 0.00 41 1009.8
20260504000037 13 0.0 3.2 0.00 0.00 0.00 40 1009.4
20260503233038 13 0 1.6 9.7 0.00 0.00 0.00 38 1009.3
20260503230017 14 0 3.2 9.7 0.00 0.00 0.00 37 1008.9
20260503223016 14 0 1.6 9.7 0.00 0.00 0.00 36 1008.8
20260503220016 14 0 3.2 16.1 0.00 0.00 0.00 36 1009.0
20260503213016 15 0 3.2 17.7 0.00 0.00 0.00 36 1008.9
20260503210016 15 0 1.6 9.7 0.00 0.00 0.00 36 1008.8
20260503203018 15 0 3.2 9.7 0.00 0.00 0.00 36 1008.9
20260503200038 15 0 3.2 11.3 0.00 0.00 0.00 33 1009.1
20260503193018 14 0 3.2 14.5 0.00 0.00 0.00 33 1009.4
20260503190017 14 0 3.2 14.5 0.00 0.00 0.00 35 1009.9
20260503183017 13 0 3.2 17.7 0.00 0.00 0.00 35 1010.1
20260503180017 13 0 1.6 16.1 0.00 0.00 0.00 37 1010.1
20260503173017 12 0 3.2 17.7 0.00 0.00 0.00 39 1010.5